RH
11 11 13 14 15 15 14 14 13 13 14 15 15 15 16 18 21 21 22 25 24 23 26 23 18 21 27 30 28 28 32 37 41 34 23 17 15 14 13 13 14 14 14 14 13 12 12 11 10 10 10 10 11 13 14 14 13 13 12 11 11 10 10 10 9 8 7 7 6 5 5 5 4 4 3 3 3 3 3 3 2 2 2 2 2 3
11 12 13 14 15 14 13 13 14 15 16 18 19 20 22 24 26 27 32 43 45 41 39 30 20 21 25 26 27 29 33 40 48 47 36 25 18 16 15 14 15 15 15 15 14 13 12 12 12 12 12 12 12 13 13 14 13 12 12 11 11 10 10 9 8 8 7 6 5 5 5 4 4 3 3 3 3 3 3 3 3 3 2 2 2 2
13 15 15 16 17 16 16 17 19 20 19 21 22 24 28 29 31 34 39 56 67 64 55 39 26 26 29 30 30 29 30 35 40 39 36 30 24 20 18 16 15 16 16 16 16 15 13 12 13 14 14 13 13 13 13 13 12 12 11 11 10 10 9 9 8 6 6 5 4 4 4 4 4 3 3 3 3 3 3 3 3 3 3 2 2 2
18 19 19 19 20 20 21 22 23 24 23 24 25 27 33 36 39 44 48 58 70 74 71 54 36 32 36 37 36 37 39 41 43 38 29 26 26 23 20 19 18 17 17 17 16 15 14 13 13 14 15 14 13 13 12 11 11 11 10 10 9 8 8 7 7 6 5 4 4 4 4 3 4 3 3 3 3 3 3 3 3 3 3 2 2 2
20 22 22 22 23 23 24 24 24 27 27 28 28 29 34 41 45 51 56 61 68 73 74 67 55 46 42 41 41 41 43 48 59 57 38 28 27 24 21 19 18 17 16 16 15 14 13 14 13 14 14 13 13 12 11 9 9 9 9 8 8 7 7 6 6 5 4 4 3 3 3 3 3 3 3 3 3 3 3 3 3 3 3 3 3 2
22 23 23 23 26 25 24 24 23 25 29 32 35 35 36 41 47 55 63 66 69 71 69 66 64 55 44 43 41 41 48 54 61 60 45 32 25 20 19 18 17 17 16 15 14 14 13 12 12 12 11 10 10 9 9 7 6 7 6 6 6 5 5 5 5 5 4 3 3 3 3 3 3 3 3 3 3 3 3 3 3 3 3 3 3 3
22 25 24 25 30 31 29 30 29 29 33 36 40 43 42 41 44 54 66 70 69 70 66 60 58 49 37 36 36 39 46 45 41 40 37 35 31 24 19 18 17 17 17 18 16 15 13 10 8 7 7 7 6 7 6 5 4 4 5 4 4 4 4 4 4 4 3 3 3 3 3 3 3 3 3 3 3 3 3 3 3 2 3 3 3 3
16 19 22 22 24 24 22 24 27 31 37 36 32 37 45 47 46 49 57 64 64 61 60 59 57 44 24 19 26 31 33 30 28 26 27 34 37 31 22 17 19 20 18 18 17 15 9 5 3 3 4 4 4 5 4 4 4 3 4 3 4 3 3 3 3 3 3 3 3 3 3 3 3 3 3 3 3 3 3 2 3 3 3 3 3 3
13 13 17 16 14 16 14 13 21 31 36 31 23 22 29 35 39 41 44 54 58 55 55 53 49 37 19 14 20 22 20 20 22 25 27 33 36 32 24 18 20 23 20 15 12 8 4 2 2 1 2 2 2 3 3 3 3 3 3 3 3 3 3 3 3 3 3 3 3 3 2 3 3 3 3 3 3 3 3 3 3 3 3 3 3 3
20 22 23 20 18 16 14 19 26 29 28 25 21 19 18 18 21 23 25 32 36 35 36 33 28 22 14 11 14 15 16 19 22 22 20 24 35 36 27 22 26 26 23 19 13 8 3 0 1 -0 1 2 2 2 2 3 3 3 3 2 2 2 2 3 2 3 3 3 3 3 3 3 3 3 3 3 3 3 3 4 4 3 3 4 4 4
27 30 27 25 23 19 26 41 38 24 19 20 19 17 15 14 14 14 14 15 15 16 23 25 18 13 12 12 15 21 31 36 34 28 23 28 42 45 36 32 35 34 31 23 12 7 5 4 6 6 2 1 1 2 2 2 3 2 2 2 2 2 2 2 3 3 3 3 4 3 4 3 3 3 3 3 3 4 4 3 4 4 4 4 4 4
28 30 30 28 25 21 28 42 39 25 22 21 16 14 15 17 17 15 14 12 9 14 30 41 29 16 19 24 25 32 45 52 46 41 48 54 55 51 46 44 43 45 44 30 15 13 13 16 23 23 14 5 1 1 2 2 2 3 2 2 2 3 3 2 2 2 3 4 4 4 4 5 4 4 4 4 4 4 5 4 4 4 4 5 4 4
31 36 42 38 33 31 37 50 55 50 45 35 27 25 23 22 20 14 9 7 5 9 34 58 48 27 31 43 43 39 48 67 74 68 71 79 74 62 56 55 51 50 49 40 33 30 27 28 32 31 25 15 6 3 2 3 3 3 3 3 2 3 4 4 3 2 3 3 4 5 5 5 5 5 5 5 5 5 5 5 5 5 5 5 5 5
45 50 58 60 58 58 63 73 75 71 66 53 42 39 38 36 32 26 22 21 19 15 31 54 52 41 47 60 62 52 56 84 100 93 91 96 93 80 71 63 52 46 48 45 41 39 37 37 35 33 34 27 19 14 11 10 8 6 6 5 5 5 6 8 6 2 3 4 5 5 6 6 6 6 7 6 6 6 6 6 6 6 6 6 6 6
48 58 71 80 84 80 77 79 80 84 85 74 59 51 54 56 53 52 52 51 49 41 41 49 49 47 51 59 70 71 75 94 104 100 100 102 99 92 86 77 61 51 48 42 39 39 40 41 39 40 41 37 32 29 27 24 20 16 12 9 8 8 10 13 12 7 4 3 6 6 6 7 7 7 8 8 8 8 8 8 7 7 7 7 7 7
43 52 62 69 81 89 88 80 79 91 98 91 75 63 67 73 73 72 68 65 63 55 51 49 42 41 42 51 74 85 86 93 99 100 100 99 100 99 93 90 83 68 53 45 40 36 37 43 47 48 48 44 40 38 37 36 34 30 25 20 16 13 12 13 14 14 11 5 4 7 7 8 9 10 10 10 10 10 10 9 9 9 9 9 9 9
62 59 54 54 70 82 80 67 60 72 88 96 93 83 81 83 82 79 72 68 67 58 49 44 38 43 51 57 75 90 92 95 98 99 103 103 101 101 100 98 89 73 59 59 61 52 43 46 49 51 53 52 49 45 42 40 39 39 37 34 29 23 18 15 14 16 18 15 10 8 9 8 8 9 10 11 11 11 12 12 11 12 12 12 11 11
68 66 53 52 72 83 80 74 66 67 75 86 96 94 91 90 85 83 78 72 71 62 48 42 40 46 61 75 85 85 83 92 96 90 88 90 89 95 101 96 86 75 65 69 81 75 53 44 47 51 53 53 50 47 45 43 41 39 38 36 33 31 27 21 16 15 16 19 19 17 15 14 11 9 9 10 11 11 12 12 12 13 13 13 13 13
61 65 56 48 65 80 84 88 90 90 84 75 72 71 77 84 83 86 91 88 86 78 63 56 50 41 53 80 94 84 72 81 90 82 70 66 67 80 93 94 90 84 73 69 76 74 59 50 48 46 45 44 44 46 47 45 42 40 38 34 30 28 29 26 22 19 17 16 18 19 19 18 17 15 12 11 10 11 11 11 12 12 12 13 13 13
66 63 61 52 58 71 85 96 99 102 100 89 77 64 58 60 58 61 72 80 92 98 85 68 49 35 43 61 72 72 68 69 80 87 80 61 48 59 79 90 93 92 90 85 76 69 69 62 49 41 41 40 42 48 45 39 36 35 36 37 32 26 25 26 25 24 25 26 25 24 22 20 18 17 17 16 14 12 12 12 12 12 12 13 13 14
78 67 60 54 54 60 77 94 100 101 103 102 100 89 77 71 64 55 49 52 72 87 84 69 44 28 33 39 46 59 61 57 64 75 73 57 52 62 71 74 76 75 83 90 84 78 79 69 49 42 45 45 47 46 37 35 39 35 31 33 34 33 24 17 20 22 22 24 27 29 27 22 20 19 19 19 18 16 14 13 13 14 15 15 15 15
90 86 76 67 62 62 66 72 76 82 86 88 86 85 89 94 93 85 68 56 58 58 56 55 41 28 31 39 54 74 80 70 61 60 60 60 67 75 70 64 62 61 68 81 86 83 79 66 45 33 33 34 37 33 23 29 38 34 35 37 33 33 32 26 25 24 22 22 22 25 27 23 20 21 22 23 23 20 17 16 16 17 18 18 17 17
71 72 68 63 62 62 62 56 51 55 63 70 70 66 71 79 88 98 94 81 73 58 44 43 35 26 34 51 65 79 91 92 83 77 80 82 81 75 66 59 55 57 65 75 80 77 67 56 44 33 27 23 21 19 16 25 31 25 35 50 41 26 28 38 36 24 22 28 26 23 24 22 21 21 24 26 24 20 18 17 17 16 15 15 14 14
47 40 35 34 35 35 39 42 42 42 43 49 56 55 53 51 55 67 75 74 71 59 46 41 32 22 31 55 71 74 81 93 96 90 89 91 88 80 72 63 54 53 61 67 71 67 57 56 59 54 46 36 28 22 16 21 29 22 23 41 49 38 26 26 26 20 24 34 34 28 24 24 25 24 23 24 22 20 18 15 14 14 14 13 12 11
34 30 25 22 24 22 23 28 31 31 28 27 34 40 41 40 38 40 48 54 54 49 45 40 35 30 30 38 53 65 76 92 100 94 87 82 77 73 66 50 37 38 50 61 66 67 69 73 68 55 46 43 42 36 24 18 23 25 17 18 38 55 52 39 29 24 26 33 38 35 30 29 31 29 26 24 22 21 21 17 14 15 15 14 13 11
28 28 24 22 23 22 23 25 25 26 26 24 29 32 33 39 39 37 43 47 45 45 45 40 35 32 30 28 29 36 50 68 79 81 81 77 71 64 47 26 18 22 34 48 58 69 78 71 53 38 28 32 45 51 42 28 20 20 18 13 19 36 49 58 65 63 56 50 49 49 43 37 36 37 34 29 26 25 22 19 17 17 17 16 14 13
29 28 30 32 32 28 27 27 27 27 25 24 29 30 32 38 39 41 44 41 43 48 42 36 37 31 25 28 29 28 30 35 39 44 51 56 56 41 20 16 27 29 27 34 42 50 55 44 34 33 28 30 48 60 54 44 32 23 19 19 20 17 20 39 68 90 91 81 75 72 62 50 44 42 41 37 33 30 25 23 23 21 20 19 16 15
33 31 35 40 40 39 38 34 30 29 27 27 27 27 35 44 45 50 51 43 47 54 40 32 41 38 23 22 28 33 32 28 24 24 28 34 38 29 18 24 33 26 18 22 27 28 27 23 23 28 31 35 44 50 50 47 42 32 21 20 24 24 22 28 45 62 66 71 90 96 81 72 69 57 47 45 43 37 30 27 26 24 21 20 18 16
38 36 40 42 42 45 48 44 37 32 32 36 34 30 39 48 48 47 48 45 48 48 34 30 40 39 26 21 23 25 25 22 21 22 20 21 26 28 28 29 27 19 14 18 24 26 23 22 22 23 29 37 41 41 41 42 44 43 34 27 29 34 33 29 33 40 35 41 77 103 97 92 92 79 64 61 56 47 38 31 29 27 23 20 21 19
44 45 50 49 43 46 51 49 44 42 42 39 34 34 39 44 46 45 44 44 45 39 32 33 36 34 29 27 27 26 26 25 25 26 25 24 24 24 24 22 20 19 19 19 22 26 24 22 23 23 26 35 42 43 39 35 39 43 40 34 38 49 52 40 27 27 32 39 59 84 97 100 98 95 92 87 76 62 50 38 32 29 25 23 24 22
44 46 54 58 56 55 60 58 52 53 52 40 31 35 41 43 45 46 46 46 47 45 42 39 36 35 33 32 30 30 31 31 30 30 30 28 27 26 25 24 23 22 23 22 21 22 22 22 22 24 26 31 39 43 38 30 27 27 29 31 37 50 65 66 46 22 26 49 59 65 87 102 100 98 101 99 92 81 64 45 34 29 27 27 27 24
46 47 61 82 82 69 67 64 54 53 52 39 30 33 39 44 46 45 46 48 49 48 47 44 41 39 37 37 37 37 37 36 35 34 33 32 30 29 28 28 27 25 24 23 22 21 21 21 20 20 21 24 30 34 33 28 22 16 16 20 24 29 42 61 64 43 35 52 58 56 75 99 101 94 91 92 96 93 75 55 42 34 31 30 30 27
68 72 80 96 95 78 71 67 62 62 50 31 30 38 40 44 46 45 47 49 49 49 47 45 43 41 41 40 40 40 39 38 37 35 35 34 33 32 31 30 28 27 25 23 22 21 19 19 18 17 17 17 20 23 23 22 20 17 14 12 12 15 18 25 38 49 55 60 58 52 59 75 84 83 80 83 95 99 87 71 57 44 37 35 32 29
77 89 91 93 93 83 76 73 76 70 42 21 32 48 50 49 48 49 52 53 51 50 46 44 42 41 41 40 39 40 39 38 37 36 34 34 32 31 30 28 27 26 25 22 20 19 18 16 15 14 14 15 15 17 18 17 16 16 15 12 9 9 10 9 16 30 40 45 51 52 49 49 54 62 67 78 97 104 93 82 70 52 41 39 35 31
62 75 83 86 87 83 76 78 80 59 32 31 49 57 57 57 53 51 51 50 50 48 44 43 42 40 40 40 39 39 38 36 35 33 32 31 30 29 26 25 25 22 21 21 19 18 17 15 14 13 13 16 17 16 17 18 19 18 14 12 11 8 6 12 23 31 25 18 22 29 31 29 29 36 46 61 86 102 95 81 70 57 48 44 38 32
60 65 74 80 86 88 84 83 79 59 45 57 67 62 60 61 56 54 52 49 49 48 46 45 43 42 41 40 40 40 39 38 35 33 33 31 28 28 26 23 23 21 20 19 17 17 16 13 12 12 12 15 20 23 27 29 29 26 19 13 13 11 7 7 22 47 57 46 33 25 23 23 26 34 44 54 73 93 97 85 70 61 56 49 39 32
64 61 67 72 76 82 84 83 81 70 58 60 64 62 64 63 59 57 55 53 52 51 51 50 49 48 47 44 43 42 40 38 33 33 39 40 33 29 25 21 19 17 16 15 12 13 14 12 12 13 13 19 31 44 50 50 47 39 28 21 15 13 13 8 16 49 80 86 77 61 48 50 54 57 63 69 73 83 95 95 81 68 62 52 40 33
67 62 64 68 68 75 81 80 79 72 60 57 63 67 69 70 70 68 68 70 69 64 59 54 51 51 50 47 46 45 44 39 32 33 44 46 37 28 24 21 18 14 12 11 11 12 13 13 14 18 20 24 44 69 77 72 67 55 39 30 21 14 16 14 15 33 58 77 84 76 72 80 79 71 78 86 80 77 90 97 86 73 65 51 38 34
67 65 65 67 70 81 91 88 81 78 73 67 67 70 71 71 72 73 75 75 71 65 57 50 48 48 49 50 50 49 47 39 28 31 41 39 29 24 21 18 15 15 17 17 17 17 18 18 21 28 35 38 51 75 86 82 77 70 57 44 31 21 19 16 16 21 33 58 77 79 81 78 58 51 71 84 81 83 88 85 77 71 64 51 39 35
67 65 64 64 66 74 88 93 90 88 84 76 74 77 76 73 76 81 79 69 64 66 65 59 57 57 57 57 52 46 46 43 37 36 35 26 20 18 16 14 14 18 23 28 31 32 35 42 45 46 50 53 54 61 67 65 62 63 61 52 39 32 28 22 21 20 22 41 59 66 77 81 66 62 71 72 75 86 89 83 77 71 62 53 45 38
66 66 64 64 65 67 75 84 88 91 89 83 84 86 83 85 94 97 88 76 71 75 74 67 66 69 66 61 56 52 53 53 47 36 26 19 17 14 12 14 16 20 26 32 36 40 51 67 74 67 62 61 58 57 57 52 44 43 48 45 38 36 33 27 26 25 25 34 42 49 71 95 102 99 94 88 90 96 97 93 88 79 69 58 49 43
67 68 67 66 67 68 70 71 72 80 87 89 93 97 96 99 101 94 86 86 83 79 71 64 66 69 63 57 56 54 49 46 40 30 22 19 16 11 13 22 27 29 31 32 33 39 55 72 77 73 71 67 58 55 53 44 34 30 31 33 33 33 31 25 22 26 31 31 33 44 63 83 99 103 98 92 91 89 87 86 86 87 79 63 53 51
63 65 67 68 66 65 66 68 70 75 80 82 84 86 85 85 84 76 73 76 74 66 61 59 60 62 58 53 52 49 41 37 34 28 21 15 11 11 18 29 35 37 38 38 37 41 52 64 67 67 68 62 50 43 40 34 27 21 20 25 27 25 25 22 18 21 26 23 28 41 46 53 80 100 93 84 84 83 79 80 88 94 84 67 61 54
53 53 55 57 60 60 61 70 83 90 89 85 82 80 78 77 73 66 62 61 58 57 59 59 59 60 57 50 46 44 40 37 31 22 15 11 14 21 26 31 37 44 45 45 46 48 49 51 51 55 57 49 37 31 27 22 18 15 17 23 21 12 13 23 27 24 24 31 49 60 49 44 69 93 90 88 96 97 93 94 99 97 84 70 59 40
32 34 35 36 43 48 47 54 70 80 83 90 94 90 85 83 81 77 72 66 63 63 64 62 62 62 56 50 48 44 37 29 21 14 14 21 31 37 37 36 41 49 51 50 50 51 50 45 44 49 49 38 29 24 21 18 13 10 11 13 12 11 18 37 51 48 40 49 72 83 75 70 83 93 92 95 102 103 100 99 98 93 81 63 42 27
20 22 22 20 25 30 29 36 51 57 63 82 99 97 90 87 88 91 89 85 81 76 68 61 56 51 47 47 46 36 26 20 15 16 29 48 59 56 46 38 38 45 52 52 45 40 41 40 39 38 31 23 19 15 11 10 8 8 10 11 16 27 37 48 60 61 57 68 85 89 86 87 92 96 99 101 102 98 92 89 89 85 69 46 30 25
20 22 18 15 21 22 16 23 46 56 56 64 77 84 89 94 94 93 92 91 87 76 64 56 51 48 46 42 31 23 24 29 31 39 58 72 74 65 50 38 36 43 51 54 46 37 33 28 24 25 29 34 39 36 29 25 23 24 33 46 55 60 62 63 62 57 60 72 78 75 78 89 98 102 102 99 94 88 82 80 76 65 48 34 28 24
23 25 21 20 24 21 11 17 41 55 54 55 60 65 75 88 94 96 97 94 83 71 64 59 55 51 42 28 23 32 43 46 48 60 71 71 61 52 43 36 36 43 52 53 43 31 25 22 31 52 67 68 69 70 68 67 66 63 69 82 87 80 75 78 75 66 69 79 78 77 87 99 101 98 95 92 87 80 73 66 56 44 35 31 24 17
26 24 30 35 32 26 23 28 38 39 38 53 71 74 72 77 83 85 89 87 79 71 64 55 48 41 26 18 35 56 56 49 55 64 61 52 47 45 43 41 41 45 49 45 33 27 35 48 68 90 96 87 84 87 86 87 91 91 91 97 97 87 80 86 91 89 91 95 93 92 95 94 90 90 91 89 81 69 57 48 41 35 30 24 17 14
44 40 54 60 45 33 37 51 58 50 40 51 71 76 70 70 69 65 64 63 57 52 47 38 34 32 26 31 54 67 55 48 57 60 49 41 42 49 51 50 46 43 40 36 36 49 69 85 94 98 97 94 96 98 96 95 99 99 99 101 102 99 95 97 100 100 97 93 91 90 89 88 90 92 87 77 65 53 44 38 33 28 23 18 15 15
70 65 72 72 58 50 56 71 82 76 61 56 63 64 60 59 57 52 50 47 43 43 40 33 30 34 38 47 59 62 55 53 53 48 41 39 41 47 50 46 42 40 40 49 67 84 94 98 99 99 96 96 99 100 100 100 100 100 100 101 101 101 100 98 97 96 93 89 89 91 91 89 85 77 66 57 48 41 35 31 26 21 18 16 15 16
Wind_Speed
19 19 19 20 20 20 21 21 22 21 20 20 21 21 19 19 21 22 22 23 24 22 22 24 22 19 19 19 19 19 21 22 21 20 20 21 23 25 26 27 26 25 27 28 27 26 25 25 25 24 24 24 24 25 26 28 28 28 28 28 28 27 27 27 27 26 25 25 25 24 25 25 24 25 25 26 26 25 25 25 24 23 23 23 24 24
19 19 20 21 21 21 22 22 22 21 20 20 21 21 19 20 21 22 22 23 24 23 22 24 23 19 20 23 22 20 21 23 24 23 22 22 24 26 28 28 28 28 29 28 28 28 27 26 25 23 22 23 24 25 27 28 28 28 27 27 28 28 28 28 28 27 26 26 25 25 25 25 25 25 25 25 25 25 24 24 24 23 22 22 22 23
19 20 22 22 21 21 22 22 21 20 21 21 23 22 21 21 22 23 23 24 25 24 23 25 23 22 24 25 24 23 23 25 26 25 23 24 26 26 27 28 29 29 28 28 29 30 28 25 23 22 22 23 24 25 26 27 27 28 27 27 27 28 28 28 28 28 27 26 25 25 25 26 26 25 25 25 25 24 24 24 24 23 23 22 22 23
21 22 23 23 22 22 23 23 22 22 23 24 24 23 22 23 23 25 26 26 28 27 26 27 25 24 26 26 26 27 27 29 31 28 22 23 26 27 29 29 29 30 28 28 30 30 27 24 21 20 21 22 23 24 25 26 26 27 27 27 27 28 29 29 29 28 27 26 25 24 25 26 26 25 25 25 24 24 23 23 23 23 23 22 22 23
22 22 23 24 24 23 24 25 24 23 24 25 25 25 23 23 24 26 28 30 31 30 30 30 29 28 27 27 27 28 30 32 34 33 27 23 24 27 29 30 30 31 30 30 31 30 27 24 21 20 21 21 22 23 24 25 25 26 26 26 27 28 29 30 30 28 27 26 25 24 25 26 26 25 25 25 24 24 24 23 23 23 23 23 22 23
23 23 25 25 25 24 25 25 25 24 25 25 25 25 25 25 25 26 30 33 33 33 32 32 34 32 28 28 29 29 32 35 35 36 32 26 25 26 28 31 32 32 31 30 31 29 28 26 23 21 20 20 20 22 24 24 24 25 25 26 27 27 28 30 30 29 27 26 24 24 24 25 26 26 25 25 24 24 24 24 23 23 23 23 22 22
24 24 25 25 25 25 24 24 25 25 24 24 24 24 26 26 26 27 31 34 36 36 35 35 36 34 29 28 31 31 33 36 36 35 31 25 23 24 26 29 31 31 30 29 29 28 27 26 23 20 20 19 19 21 23 23 23 23 23 24 26 27 27 28 28 27 26 25 24 24 24 25 25 25 25 25 25 25 25 25 24 24 23 23 23 22
24 24 25 26 26 25 24 23 24 23 23 23 24 26 27 28 27 28 31 35 37 37 36 36 36 38 34 27 28 31 33 35 33 30 27 22 20 22 24 27 28 28 28 28 27 25 24 24 22 20 19 19 19 20 21 22 23 22 22 22 24 25 25 25 25 26 25 24 24 23 24 24 25 25 25 25 25 25 25 25 25 25 24 23 23 23
20 21 23 24 24 23 22 21 21 20 21 22 23 24 26 29 31 31 33 34 37 38 37 34 34 39 35 22 21 28 30 29 27 24 24 21 19 20 22 25 24 22 23 25 25 23 22 22 22 21 20 19 19 19 21 22 22 21 20 21 22 23 24 23 23 23 24 24 24 23 23 24 24 24 25 25 25 25 25 26 26 26 26 25 24 23
16 17 19 19 19 20 18 17 18 19 20 20 20 20 21 25 28 30 33 33 35 35 29 25 28 34 28 15 18 23 21 21 22 24 25 22 20 21 20 20 19 17 17 20 22 22 22 22 22 22 22 21 20 20 20 21 22 21 19 19 20 21 22 22 21 22 24 24 24 23 23 23 23 24 25 26 26 26 25 26 26 26 26 26 26 25
13 16 17 15 15 16 14 14 17 18 18 18 19 20 20 21 23 25 27 29 30 26 17 16 22 27 22 13 15 17 14 17 21 24 24 21 21 20 17 15 14 14 15 17 19 18 19 20 19 21 21 21 21 20 21 21 20 20 18 18 18 20 21 21 21 21 22 23 24 23 23 23 23 24 25 26 26 26 25 25 26 26 26 26 27 26
15 15 16 15 14 14 13 15 19 20 20 20 20 21 22 21 21 21 22 24 24 16 11 14 19 23 19 12 14 16 16 19 22 22 21 18 19 18 14 12 12 12 14 16 17 17 17 19 20 21 21 21 20 20 20 20 19 19 18 18 18 18 19 20 21 21 21 23 23 22 22 23 23 23 24 25 26 26 26 26 26 26 26 26 26 27
16 15 16 16 14 14 14 16 18 20 21 21 19 19 19 18 18 19 19 21 21 14 12 16 20 22 17 9 12 18 19 17 17 18 16 14 15 15 13 12 12 13 14 16 18 18 20 23 24 22 21 22 22 21 21 21 20 20 19 19 19 18 18 18 20 21 21 22 22 22 22 22 23 23 23 24 25 26 27 27 26 26 26 27 27 27
17 15 15 16 15 15 15 15 16 16 17 18 17 16 16 16 18 20 19 20 21 17 16 19 21 20 14 8 11 17 17 12 12 16 15 14 15 15 15 16 17 18 18 19 19 19 22 25 25 22 21 22 22 23 23 23 22 22 22 21 20 19 18 18 19 20 21 22 22 22 21 22 23 23 22 23 24 25 26 26 27 27 26 27 27 28
17 16 16 16 16 16 16 15 15 15 16 17 18 18 18 18 18 19 18 18 20 18 17 20 21 20 16 12 12 17 17 12 11 15 18 19 19 18 18 20 21 22 23 24 23 22 24 25 23 22 20 20 20 21 21 22 22 23 23 23 21 20 19 20 21 21 22 22 22 22 22 22 22 22 22 22 23 24 25 26 26 27 27 27 27 28
18 17 16 16 17 18 17 17 17 16 16 17 20 20 18 17 17 18 20 20 21 22 20 20 21 20 18 14 11 15 19 18 16 17 19 19 18 19 19 19 21 24 25 27 28 28 27 25 22 21 21 19 19 20 19 20 21 22 22 22 22 22 22 23 24 24 23 23 23 23 23 23 23 22 22 22 23 24 25 26 26 26 27 27 27 27
20 18 16 16 19 21 20 20 20 18 17 17 19 20 19 20 21 23 23 22 23 24 23 22 20 19 18 16 15 17 19 19 19 19 19 18 17 20 21 21 24 27 26 26 27 27 26 24 23 22 21 20 20 20 21 21 21 20 20 19 20 21 23 25 27 27 25 25 24 25 25 25 25 24 24 23 24 25 26 27 27 27 27 28 28 29
23 22 19 16 19 23 23 22 21 19 19 19 18 19 22 24 25 25 26 24 24 26 27 25 22 19 19 20 21 22 20 20 21 23 24 24 24 24 25 28 30 30 28 26 25 25 23 23 25 24 21 20 21 21 21 20 19 18 17 17 17 18 19 22 26 28 28 27 27 27 27 27 27 27 27 26 26 27 28 28 28 28 29 29 29 30
27 25 22 17 16 21 23 23 21 19 21 23 22 22 25 26 25 26 26 25 25 27 29 27 24 22 21 23 25 25 24 24 26 28 30 30 30 29 31 33 32 31 30 29 28 28 25 23 24 23 22 23 23 21 18 18 18 18 19 20 19 17 17 18 21 24 26 28 28 29 29 29 30 30 29 29 29 29 30 30 30 30 30 30 30 31
31 30 27 21 16 18 22 24 23 22 24 25 25 26 29 30 30 29 29 28 28 29 30 30 28 25 23 25 27 28 28 29 31 33 34 34 33 33 32 31 29 29 30 30 30 30 26 23 23 25 27 28 24 20 19 20 20 20 21 22 24 23 21 19 18 19 22 24 26 27 28 29 30 31 31 31 31 31 31 32 32 31 31 31 32 32
34 35 34 29 24 22 23 25 26 26 27 27 28 29 30 31 32 33 34 33 33 33 33 35 34 29 26 27 27 28 30 31 32 35 36 35 34 33 31 29 29 30 31 32 32 32 28 25 24 26 27 28 26 25 26 27 25 24 23 23 23 25 24 21 18 19 21 23 24 24 25 27 28 29 30 31 32 33 33 33 32 32 32 32 32 32
36 38 38 37 34 32 31 31 31 31 31 32 33 35 34 33 34 35 37 36 35 36 36 38 38 33 29 28 27 27 29 29 31 33 34 34 32 32 31 30 30 31 33 34 34 34 31 28 28 29 30 31 31 32 33 32 30 29 28 26 24 24 24 23 22 24 26 27 27 26 26 26 27 28 29 30 31 31 31 31 31 31 31 31 31 31
39 40 42 42 42 40 39 39 37 35 33 33 35 37 37 36 36 38 40 40 39 39 38 39 41 35 28 28 30 31 30 29 30 33 34 34 33 33 33 32 31 32 34 35 35 35 32 32 35 36 36 36 35 36 36 35 34 32 30 30 29 26 25 25 25 27 28 29 30 30 29 29 29 29 30 30 30 30 29 29 29 29 29 29 30 31
42 43 45 45 45 44 43 42 40 38 35 34 35 37 37 38 39 41 43 44 43 42 41 42 44 37 29 30 34 36 36 35 35 35 36 36 36 35 35 34 34 34 35 36 37 37 36 37 39 38 39 39 38 38 38 37 36 35 32 32 33 30 28 27 27 27 28 30 32 32 32 32 32 32 32 32 32 31 30 29 29 29 30 30 31 32
44 45 45 45 45 44 43 42 41 38 37 37 37 37 37 39 40 41 43 45 45 44 43 45 44 38 33 34 36 37 40 42 42 40 39 40 40 38 37 38 39 38 38 38 39 40 41 40 40 40 41 43 43 42 41 39 39 39 38 36 35 33 32 32 32 31 29 30 33 35 35 35 35 36 35 35 35 33 31 30 30 31 32 33 33 34
44 44 44 44 44 44 43 43 41 38 37 37 38 38 37 38 40 40 42 44 45 44 45 47 46 42 38 38 38 40 41 42 43 42 41 43 43 41 41 43 44 43 41 41 41 42 43 43 43 44 44 45 47 47 45 43 42 42 42 40 38 37 37 37 40 39 34 32 34 37 38 38 38 38 38 37 37 35 33 32 33 34 34 34 34 35
42 41 41 41 41 43 44 44 43 41 38 37 38 39 39 40 40 39 41 43 43 45 46 46 46 45 41 37 38 42 43 42 42 43 44 45 47 48 48 46 43 42 42 43 44 45 46 46 46 47 47 47 47 48 48 47 44 43 43 42 41 41 41 40 42 42 39 37 38 39 40 39 39 40 40 39 38 37 35 34 35 35 35 35 35 35
40 38 38 37 37 38 40 42 42 41 39 38 38 38 39 40 40 39 41 42 44 47 47 44 44 45 43 40 41 44 45 44 44 44 45 45 46 48 49 45 43 44 46 47 48 49 50 50 49 49 50 50 49 49 50 50 49 47 45 43 43 45 45 43 43 43 42 42 42 43 42 39 39 42 42 40 40 39 37 37 37 36 36 35 35 35
39 37 36 36 36 36 37 38 39 39 39 38 37 38 38 40 40 41 43 45 47 48 47 43 44 45 45 45 47 47 47 48 48 48 48 48 47 48 48 49 51 51 50 49 50 51 52 53 52 51 51 51 51 51 52 52 52 51 48 46 45 46 47 46 46 45 44 43 42 42 42 39 38 41 42 42 42 42 40 39 38 37 37 36 35 35
37 36 35 37 38 39 38 36 36 37 38 38 38 38 40 41 41 43 44 45 47 48 46 45 46 47 47 47 48 49 49 50 51 51 51 51 51 52 52 54 56 54 52 51 52 53 53 54 54 54 54 54 54 54 54 54 53 52 51 49 48 48 47 47 49 48 45 43 42 42 43 44 41 40 40 42 44 44 43 41 40 38 37 36 36 36
36 36 37 39 41 41 40 37 36 36 37 38 38 40 41 41 41 41 41 41 43 45 46 47 47 47 47 48 48 49 51 52 53 54 54 54 54 54 54 54 54 53 53 53 54 55 55 55 55 55 56 57 57 58 58 56 55 54 53 52 51 50 48 47 49 50 47 45 44 44 44 44 42 41 43 45 45 44 44 43 41 40 39 38 37 37
37 37 37 40 44 45 43 42 41 40 40 39 39 41 41 39 38 38 38 40 42 43 45 47 47 46 47 48 49 49 51 52 53 54 55 55 54 54 54 54 54 53 53 53 54 55 55 55 55 56 56 57 57 58 58 58 58 57 56 56 55 54 53 50 48 49 49 49 48 47 44 42 41 44 48 50 50 47 45 43 42 41 41 40 39 39
37 38 38 41 45 46 46 46 46 45 45 42 41 41 41 39 37 37 38 40 41 42 42 44 45 45 46 48 49 49 50 52 53 54 54 54 54 55 55 55 55 55 55 55 55 55 55 56 56 56 57 57 58 59 59 60 61 62 61 60 57 56 57 57 54 53 53 53 53 52 50 48 48 47 48 53 55 53 47 44 44 44 43 42 41 41
37 38 41 43 46 46 47 47 48 49 49 45 41 40 39 38 38 38 39 40 41 41 42 43 44 44 45 47 48 49 50 51 52 53 54 54 55 56 56 56 56 56 56 56 56 56 57 57 57 57 58 58 60 61 61 61 62 63 64 63 60 58 56 57 58 59 60 60 58 56 55 54 53 51 49 51 52 52 50 46 46 45 44 43 43 42
39 39 41 42 44 46 46 47 49 50 48 45 43 41 39 39 39 39 41 42 42 43 43 43 44 44 45 46 48 49 50 50 51 52 53 54 54 55 55 54 55 55 55 56 56 57 57 57 57 57 57 58 59 60 61 61 61 62 63 63 63 62 59 58 58 58 61 63 63 61 60 58 56 54 52 50 48 47 45 45 45 45 45 44 43 42
39 39 39 40 42 43 44 46 48 47 45 45 46 45 43 42 40 39 41 42 43 43 44 44 44 45 46 47 47 48 48 48 49 49 50 51 51 51 51 51 51 52 52 53 54 55 56 56 56 56 56 57 59 59 60 61 61 61 62 62 64 64 62 61 57 52 52 56 59 60 58 56 55 53 52 52 51 47 44 43 44 45 44 44 43 43
39 39 40 40 41 41 42 44 46 45 44 45 46 45 43 42 41 40 41 42 43 42 42 43 43 44 45 45 46 47 47 47 47 46 46 48 48 49 49 49 50 50 51 51 53 53 54 54 54 55 56 56 57 59 59 59 60 61 60 60 61 62 63 63 60 52 46 45 48 50 51 49 49 50 52 53 53 53 51 47 44 44 44 44 43 43
38 39 39 40 40 40 40 42 43 44 43 43 43 42 40 39 39 39 39 40 40 40 40 41 42 43 44 45 45 46 46 46 46 44 44 45 46 48 48 49 50 52 52 53 53 52 53 53 53 55 55 55 56 57 58 58 59 59 59 58 58 59 60 62 61 58 53 47 46 49 52 51 50 51 52 52 51 51 51 48 44 43 43 43 43 43
36 36 37 38 38 37 38 40 40 41 40 39 39 39 38 37 37 37 38 39 41 42 43 43 43 44 44 44 44 44 45 47 47 45 44 44 46 47 49 51 53 54 54 54 54 53 53 53 52 52 53 54 55 55 57 57 58 58 58 57 56 57 59 59 59 58 57 54 49 48 51 52 52 53 54 52 50 49 47 44 42 42 43 43 43 43
33 35 35 36 36 36 38 39 39 39 39 38 38 38 38 37 37 38 39 41 43 43 43 42 41 42 42 43 44 44 45 47 48 46 46 48 49 50 51 52 52 52 52 52 53 54 53 51 49 48 49 50 50 51 52 54 56 57 57 56 56 56 56 57 56 55 55 56 52 47 46 45 47 52 55 55 53 49 43 40 40 42 43 44 44 44
30 33 34 35 34 35 37 38 38 39 39 39 38 38 36 35 37 38 40 42 41 40 40 41 42 43 44 45 46 46 45 47 48 48 50 53 54 53 51 50 49 49 49 49 50 51 51 48 45 44 44 45 45 45 46 47 49 52 54 55 54 52 52 53 54 52 51 52 51 49 47 43 39 41 46 49 49 48 45 44 45 45 45 46 45 45
28 29 32 34 35 35 36 37 38 39 39 38 38 38 38 40 42 44 44 43 43 44 46 47 48 49 50 50 50 49 49 50 51 52 53 55 56 55 51 49 48 47 46 46 46 46 46 46 43 40 39 40 42 42 43 42 43 45 48 51 51 49 48 49 51 51 50 48 48 49 51 50 44 39 38 39 41 44 47 50 50 48 47 47 46 45
30 30 32 34 36 37 38 39 40 41 42 41 42 43 45 47 48 49 49 48 49 50 51 52 52 53 53 53 53 53 53 53 53 54 55 56 55 53 50 48 46 42 39 39 40 41 42 43 41 38 38 39 39 39 40 40 40 40 42 44 44 44 45 45 46 47 47 45 46 47 50 53 51 44 40 39 40 42 46 48 48 48 48 47 46 44
35 35 35 35 36 38 39 40 42 44 45 46 47 49 51 52 52 53 52 52 52 52 53 53 54 54 54 54 54 54 54 54 55 57 57 53 49 47 45 43 39 36 34 33 34 35 37 39 38 36 37 38 38 39 39 40 39 37 37 39 39 40 42 42 42 42 41 40 42 44 44 48 50 45 43 44 43 42 43 45 46 46 47 46 44 43
38 39 39 39 38 39 40 41 43 45 46 48 50 52 53 54 54 54 54 54 53 53 54 54 54 54 54 54 54 55 55 55 56 55 50 44 40 39 38 36 32 31 30 29 29 30 31 32 33 34 36 37 39 41 41 39 35 33 34 37 39 38 36 34 35 35 35 36 40 40 37 40 44 45 45 45 41 38 38 41 43 44 45 44 42 42
41 42 43 43 43 43 43 43 44 45 46 47 51 53 54 55 55 56 56 55 55 55 56 56 57 57 56 56 56 56 55 53 50 45 38 33 31 32 32 31 29 28 26 25 26 27 27 28 30 33 36 37 38 37 36 33 29 28 29 30 31 32 31 31 32 32 33 36 40 40 37 38 41 43 42 41 38 36 36 37 39 41 42 42 41 41
43 43 45 46 46 47 48 46 46 46 47 49 51 53 54 55 56 56 56 56 57 57 58 58 58 58 57 56 55 52 47 43 38 31 27 26 27 28 29 28 26 25 25 24 24 25 25 25 27 30 31 30 27 25 23 21 21 22 23 23 25 27 29 31 33 34 35 37 39 40 41 41 41 39 38 37 37 37 36 35 36 38 39 39 40 42
44 44 45 45 46 48 50 48 47 47 49 51 52 53 54 55 55 56 57 58 58 58 58 57 56 56 55 52 48 43 38 33 28 24 23 24 27 27 26 23 22 23 24 23 23 23 22 22 23 23 21 18 15 14 15 16 18 19 19 21 24 25 27 30 31 33 35 37 38 39 40 39 38 37 36 35 35 35 34 33 34 35 36 38 40 43
44 45 45 44 45 47 46 45 46 48 50 50 50 51 52 53 54 54 55 56 56 56 56 54 52 51 49 44 39 36 33 29 25 23 22 24 26 24 21 19 21 22 22 21 20 18 17 16 17 18 17 14 13 12 13 15 17 19 22 27 29 29 30 32 32 32 34 34 33 33 33 33 33 32 32 31 30 30 29 30 32 34 36 38 42 45
41 42 41 41 43 43 40 38 40 44 44 42 43 46 47 48 49 49 50 51 50 50 50 49 45 43 42 37 33 32 30 26 23 21 23 23 23 21 19 19 20 19 19 18 16 13 13 14 16 18 19 15 9 8 13 15 16 19 26 33 34 33 32 32 30 29 28 27 25 25 25 26 26 26 25 25 25 25 26 28 31 34 37 40 43 45
37 39 39 40 42 40 37 34 34 36 36 34 34 36 37 38 39 41 41 42 42 42 43 42 38 36 35 32 30 29 26 23 21 22 23 22 20 20 19 18 16 16 15 14 12 12 15 16 16 18 19 13 8 13 21 23 21 21 25 29 30 30 30 28 25 22 21 19 19 19 19 20 20 21 21 21 22 24 26 29 33 36 39 41 42 42
Wind_Direction
243 244 244 246 247 248 250 250 250 252 254 258 261 261 260 260 260 262 266 268 267 263 259 260 260 259 260 264 264 267 271 272 273 272 267 266 268 271 274 278 279 278 275 273 271 267 263 261 261 261 260 260 262 263 263 265 267 268 270 272 274 276 277 277 277 277 276 276 276 275 274 273 271 269 268 268 266 265 264 262 260 256 253 252 251 251
245 247 246 245 245 246 248 250 251 253 254 256 258 259 260 260 261 262 263 264 265 263 261 265 270 270 267 265 265 266 269 273 274 272 270 268 269 271 274 278 279 276 274 275 273 270 266 264 263 264 263 262 262 262 263 265 266 268 270 272 274 275 275 276 275 275 275 275 276 275 274 273 270 268 267 266 265 264 262 260 258 256 253 250 248 249
245 246 247 246 246 248 250 251 252 254 255 255 256 257 258 258 261 261 259 257 256 256 258 265 272 272 268 270 273 275 277 278 276 269 265 265 267 270 273 276 276 275 275 276 274 272 271 269 266 265 262 260 259 261 263 264 265 267 270 272 273 273 273 273 273 273 273 274 274 274 273 272 270 268 266 265 264 263 262 259 257 255 252 249 247 247
246 247 250 251 249 249 251 252 253 252 253 254 254 254 254 255 257 257 257 254 252 252 253 260 268 269 268 272 276 280 283 285 284 278 266 261 264 269 271 272 272 273 275 275 273 274 275 273 270 266 263 259 258 259 260 260 261 265 269 270 269 269 269 269 270 270 271 271 272 271 271 270 269 268 266 265 264 262 261 259 257 255 252 249 247 247
247 248 250 252 252 251 251 251 252 252 253 253 253 253 252 253 254 255 254 252 252 252 252 257 262 264 266 270 273 276 280 283 283 281 273 266 265 266 267 269 269 271 273 273 273 274 275 274 272 268 265 260 256 256 256 255 258 262 265 266 265 265 266 267 267 268 269 270 270 270 268 267 266 266 265 264 264 263 262 259 257 255 254 251 248 247
249 248 249 251 252 252 252 254 254 253 252 252 253 254 252 249 249 250 250 251 252 252 255 257 258 261 265 267 270 272 275 276 274 272 273 272 266 262 263 265 267 269 270 270 271 274 275 273 271 268 265 259 253 252 253 255 256 258 260 262 263 263 264 266 267 267 268 269 269 268 266 264 264 264 263 262 262 262 261 261 258 255 254 253 250 249
254 251 253 254 253 252 253 254 255 255 254 254 253 251 250 246 243 242 244 248 250 252 256 259 261 266 268 267 271 272 269 268 266 268 271 271 266 260 258 259 263 266 267 268 269 271 273 274 273 269 263 258 252 250 252 254 255 256 257 259 262 263 263 265 267 268 269 269 269 267 264 262 261 261 261 261 261 260 260 260 259 256 255 254 252 250
259 256 256 256 255 256 255 255 256 255 256 257 254 250 248 246 242 240 242 245 250 253 255 258 265 272 276 275 272 264 257 258 263 267 267 263 257 253 251 252 256 263 266 265 267 269 271 272 273 270 264 259 255 253 253 254 254 255 256 257 259 262 263 264 266 269 271 271 270 267 264 261 259 259 259 258 258 259 259 259 258 257 256 255 254 252
268 266 262 261 261 262 262 264 265 259 256 258 258 255 252 251 248 246 246 246 250 254 258 263 269 271 274 273 258 251 249 252 256 256 254 249 242 238 241 245 250 261 266 266 267 270 271 272 272 272 270 264 258 255 254 254 255 255 255 256 259 262 264 264 266 270 271 271 270 266 263 261 258 257 257 256 255 255 257 258 258 259 258 257 255 254
274 271 267 268 268 268 271 276 274 263 257 259 260 260 258 256 253 251 252 250 252 256 260 261 259 263 266 254 242 248 253 255 250 247 246 239 232 230 229 235 247 260 268 267 265 266 269 273 276 276 274 269 263 259 256 255 255 256 257 257 260 263 265 267 267 269 270 270 268 264 261 259 256 255 255 256 255 254 253 255 257 259 260 261 259 258
259 261 261 261 262 267 274 277 270 262 262 263 262 264 263 259 254 251 251 251 254 257 255 248 248 257 262 246 238 246 247 244 242 244 247 241 239 242 236 231 241 258 268 269 264 264 270 277 282 281 278 274 270 265 260 257 257 258 259 259 260 263 265 268 269 268 269 268 266 262 259 257 254 252 252 254 256 255 254 254 255 257 260 262 263 263
248 254 258 257 254 256 257 263 266 265 266 264 262 264 264 258 250 247 249 252 254 251 243 248 251 255 259 245 236 236 229 234 240 241 243 243 246 252 253 244 241 250 258 260 261 267 273 278 284 285 280 274 270 266 263 261 261 261 261 260 259 261 264 268 271 269 267 266 265 263 260 258 255 252 251 252 254 256 255 255 254 255 257 259 262 265
250 250 256 259 256 253 253 259 266 268 267 262 262 264 261 254 243 242 247 253 255 244 232 244 249 254 259 244 232 234 229 234 249 250 246 248 250 251 261 265 260 258 256 255 259 265 270 274 279 281 278 272 267 264 262 259 259 259 259 259 258 258 260 265 269 269 267 265 264 262 260 259 257 254 252 252 254 256 257 257 257 257 257 259 261 263
250 246 250 256 257 256 254 254 259 264 264 261 262 260 253 247 244 245 250 255 257 249 234 237 246 255 259 241 224 229 229 235 254 259 256 252 250 254 267 274 273 271 272 269 262 261 268 274 276 275 271 267 263 261 261 259 257 256 255 255 255 254 255 256 260 262 262 261 261 260 259 257 257 256 255 253 254 256 258 259 261 261 262 262 263 263
246 243 245 250 255 255 251 250 253 255 259 259 256 251 246 246 249 253 256 259 260 254 242 242 248 255 258 252 228 221 226 231 237 245 248 245 244 252 268 276 276 275 275 276 272 268 272 274 272 268 264 261 259 257 258 257 255 254 252 252 250 249 248 249 252 254 255 257 257 256 256 255 255 255 255 254 254 255 257 258 260 262 263 263 264 264
253 249 247 249 254 254 246 244 245 243 248 253 252 253 255 257 257 257 258 259 260 259 253 250 255 262 265 259 238 227 228 231 234 234 235 238 243 250 259 262 263 265 269 274 275 275 273 270 264 260 257 255 254 253 253 254 255 254 253 250 248 245 244 246 249 250 251 252 253 253 254 254 254 253 254 254 254 254 255 255 256 257 259 260 261 262
269 265 259 253 254 254 250 250 252 247 246 251 253 254 256 256 255 254 253 253 256 260 259 259 263 265 260 250 246 244 238 238 247 248 241 241 251 259 258 251 251 260 266 269 271 270 270 271 269 263 258 258 259 257 254 253 254 256 256 253 249 246 244 245 247 249 250 250 251 252 253 254 254 253 252 252 253 253 254 255 255 256 256 258 259 260
270 268 265 258 252 252 254 258 260 253 243 242 245 248 250 253 256 257 255 252 252 257 262 265 265 259 250 246 246 247 242 239 243 246 244 244 249 253 254 251 252 259 264 264 263 261 265 274 277 271 265 266 269 265 258 254 255 259 262 260 258 254 249 246 247 249 249 250 252 253 254 254 254 253 253 252 252 253 253 255 255 256 257 258 259 260
266 264 262 260 252 250 252 256 257 252 248 250 251 253 254 256 258 258 258 257 257 261 266 266 262 255 251 248 247 246 245 240 239 242 245 247 250 248 247 249 251 253 257 260 259 259 267 277 278 275 276 278 275 264 259 264 268 273 277 274 271 269 262 255 253 253 252 252 253 255 256 256 256 255 256 256 256 255 254 256 256 257 258 259 260 260
264 264 260 257 250 246 247 249 250 250 255 262 264 263 262 262 261 259 258 258 258 260 265 266 264 260 255 253 254 253 250 245 244 246 249 255 259 256 250 251 251 251 254 258 261 262 267 274 277 281 285 285 278 264 265 274 277 281 284 282 278 275 270 265 263 261 260 258 257 257 258 259 259 259 259 259 259 258 257 257 258 259 259 259 260 261
261 266 266 264 257 249 243 243 246 247 250 257 263 265 265 264 262 260 260 259 258 257 260 264 267 266 262 261 263 263 259 253 249 249 252 257 259 257 255 256 258 260 259 259 260 260 261 268 276 280 280 278 275 272 277 282 281 282 283 281 277 272 267 267 271 274 273 269 265 263 262 263 263 263 261 260 260 259 258 258 259 260 261 261 262 263
256 261 266 268 265 260 253 249 251 252 252 254 257 260 261 261 259 258 260 261 260 259 259 261 265 266 263 261 263 263 261 257 256 257 256 254 253 253 255 259 263 265 264 263 263 261 260 266 273 276 276 276 275 278 283 285 282 283 282 276 271 267 262 264 275 284 283 276 270 266 264 265 266 267 265 263 261 260 260 260 261 262 263 264 265 266
256 259 263 265 265 264 261 259 258 257 255 254 254 253 253 255 255 254 256 258 258 259 260 261 263 264 260 256 257 257 255 253 254 256 254 250 249 251 253 256 258 258 259 260 262 262 262 266 271 274 275 276 276 279 282 282 280 283 285 277 270 266 262 262 270 280 283 278 270 265 264 266 267 269 268 265 263 262 262 263 264 265 265 267 269 270
260 262 263 264 264 264 262 261 259 255 253 252 252 252 252 254 254 253 254 256 256 257 259 260 262 263 258 252 252 253 253 251 248 248 247 247 248 250 253 255 257 257 256 256 257 259 260 264 270 273 275 276 276 276 278 278 276 279 282 279 269 263 262 262 264 271 278 276 269 264 263 265 267 268 268 267 267 265 264 265 267 268 268 270 274 275
261 263 266 267 268 268 267 265 262 258 255 252 250 252 255 256 256 255 255 256 257 256 255 257 259 260 258 254 250 248 248 249 250 248 246 247 248 250 253 260 263 263 261 260 258 257 257 262 269 273 274 276 276 275 274 273 271 272 275 276 268 261 260 261 263 269 275 275 269 265 263 264 265 266 265 266 267 266 264 265 268 270 271 273 276 279
262 265 268 271 273 274 274 272 271 267 261 255 252 251 254 255 256 256 256 257 258 257 256 256 258 258 257 257 258 254 250 249 252 253 251 252 252 252 257 265 266 264 263 263 262 259 259 263 269 272 272 272 271 271 271 271 268 267 269 269 267 264 262 262 265 267 270 273 272 267 265 264 263 263 263 263 265 264 261 263 267 269 270 273 277 281
265 267 270 272 274 276 277 276 275 272 266 259 255 254 255 256 255 254 255 256 258 258 256 256 259 259 256 256 259 260 256 253 252 253 253 254 255 257 261 263 262 261 263 264 263 263 263 264 267 268 268 267 266 267 269 270 268 266 267 266 266 266 264 262 262 260 263 271 272 266 264 264 263 261 261 262 263 261 259 260 264 265 267 272 276 281
268 269 270 271 272 274 274 273 273 272 269 264 259 257 257 257 256 254 253 254 254 254 255 256 259 260 258 257 257 257 257 256 255 254 254 255 255 256 257 257 258 263 265 263 263 264 265 265 264 263 263 263 264 264 266 269 268 267 267 265 263 264 262 260 259 258 260 266 269 265 260 259 261 261 260 262 263 261 258 258 260 262 265 270 275 279
271 272 271 270 271 272 271 270 270 270 269 267 263 259 256 255 255 255 255 254 252 254 257 258 258 259 259 259 259 259 259 260 261 260 259 259 258 256 254 255 259 264 264 261 260 261 263 265 265 264 262 261 261 261 262 263 265 266 265 263 260 259 258 259 261 260 260 262 265 264 257 251 256 259 259 261 262 260 258 257 257 259 263 267 272 276
270 272 271 270 270 270 269 268 270 271 270 268 266 264 259 256 255 256 256 255 256 259 261 259 257 257 258 258 260 262 264 265 265 265 264 263 261 260 259 259 261 263 263 261 260 259 260 261 263 264 264 262 261 260 259 259 260 261 262 261 259 257 257 260 262 262 264 264 263 264 260 252 251 255 257 260 260 258 257 256 256 258 260 264 268 271
268 269 270 270 270 269 268 267 269 270 269 266 266 265 262 259 258 257 257 257 257 257 257 257 257 257 258 258 259 261 263 264 265 265 266 265 265 265 265 265 265 265 264 262 261 260 260 260 260 262 262 261 260 260 261 261 260 259 259 258 258 257 256 259 261 262 264 264 261 263 262 255 253 259 261 261 260 257 255 255 255 257 259 261 265 267
269 269 268 268 269 270 271 270 270 269 267 265 266 265 264 264 263 262 261 258 255 254 253 255 256 257 258 259 259 260 261 263 264 265 266 268 269 269 268 267 266 266 265 264 263 263 263 262 262 262 262 261 259 258 259 260 261 260 259 256 255 255 254 254 256 259 262 262 261 262 260 256 259 265 265 264 263 258 254 254 254 256 257 259 261 263
268 268 267 266 267 269 270 271 273 273 271 269 267 268 269 270 268 265 263 260 257 256 255 254 254 255 256 257 257 258 259 261 263 264 265 266 266 266 266 266 266 266 266 266 265 265 265 264 264 264 264 263 261 258 256 257 258 259 259 257 255 254 253 253 255 258 259 260 260 260 259 259 263 267 270 271 266 256 253 254 254 255 256 256 258 259
263 261 261 263 265 266 267 270 272 273 274 274 273 273 273 272 268 265 263 262 261 259 258 257 256 256 256 256 257 257 259 260 262 264 264 265 265 265 266 266 267 267 267 266 266 265 264 264 264 264 263 262 261 260 258 256 256 255 256 256 255 252 251 252 255 257 257 258 259 260 259 259 261 263 269 274 267 256 253 255 254 254 254 254 255 257
266 263 261 261 263 264 265 266 268 270 275 278 279 276 273 269 267 265 264 264 264 263 263 262 262 261 260 259 259 259 260 261 263 264 265 266 266 266 266 267 267 267 266 266 265 265 264 264 264 263 263 261 260 259 258 257 255 254 253 253 253 252 249 249 253 257 259 259 260 261 261 261 261 262 264 270 269 260 255 255 254 253 253 254 255 256
269 268 265 262 261 262 263 264 266 270 275 277 276 275 274 272 269 266 266 265 265 265 265 265 265 264 263 263 263 263 262 263 265 267 268 268 268 267 267 267 267 267 266 266 266 266 265 264 264 262 261 261 260 260 259 258 257 255 253 251 251 250 249 248 251 257 263 262 261 263 264 264 264 264 264 266 266 263 261 259 255 253 254 255 255 257
270 269 268 265 263 263 264 265 267 271 272 272 273 275 275 274 272 269 267 267 266 265 265 265 265 265 265 265 266 265 265 265 266 269 271 271 271 271 271 271 270 270 269 269 269 267 265 265 264 263 261 260 259 259 258 258 258 257 255 252 250 249 248 248 248 250 255 258 260 261 262 262 263 263 264 265 264 264 267 265 257 254 256 256 256 258
273 272 270 268 268 268 266 266 269 271 273 274 274 273 272 270 271 271 269 267 266 264 263 264 265 266 266 266 265 266 265 265 265 266 268 270 272 273 274 275 275 275 275 274 272 268 266 265 264 263 261 259 257 257 257 257 257 256 255 253 251 250 249 248 248 247 247 251 257 258 257 258 259 260 263 266 265 264 267 265 259 257 259 259 259 261
273 272 271 270 269 267 265 266 269 271 272 273 272 272 272 271 270 270 269 266 266 266 267 267 267 267 266 265 264 264 264 264 264 263 264 268 272 274 275 276 276 276 275 274 273 270 268 268 266 263 262 261 258 257 257 256 256 255 255 254 253 252 252 251 250 248 247 250 255 258 259 259 258 257 261 265 266 265 265 262 260 260 262 262 263 264
272 271 270 269 268 265 262 264 266 267 268 268 269 272 276 275 273 272 271 269 268 269 269 269 269 267 266 266 265 265 265 265 264 262 265 273 277 277 277 277 275 273 272 271 271 270 269 269 269 266 264 263 261 259 258 258 257 255 255 255 255 253 252 252 252 250 248 250 253 256 259 260 258 256 258 263 265 262 259 259 262 263 263 264 264 266
271 271 272 271 269 264 260 259 261 262 265 266 267 269 270 269 268 269 270 269 269 268 269 271 271 269 269 269 269 267 267 268 268 269 273 279 282 282 281 279 275 272 270 269 270 269 267 267 269 267 266 265 262 260 259 259 258 257 254 253 253 252 250 251 252 251 250 251 251 251 251 253 255 256 258 261 262 258 257 263 268 266 263 263 265 267
267 267 268 268 267 265 263 261 260 259 260 261 260 259 257 258 261 264 265 266 267 270 273 274 274 273 273 274 273 272 272 274 275 276 279 283 285 285 283 280 278 276 273 271 272 270 265 263 266 265 264 265 265 262 260 259 259 258 255 251 250 249 249 251 251 250 250 250 250 250 251 250 252 258 263 263 262 260 261 265 267 264 261 262 266 269
266 262 260 259 262 264 264 264 263 261 260 259 259 259 259 259 261 264 265 265 268 271 273 274 274 274 274 275 276 276 278 279 281 282 284 285 285 284 281 280 280 280 277 275 274 270 264 262 264 263 262 265 267 264 261 260 259 257 252 249 247 246 247 249 248 246 247 250 250 251 252 250 252 260 267 268 267 265 263 263 262 260 259 262 267 270
270 267 263 260 259 260 260 260 259 260 261 261 262 263 263 263 264 266 266 267 269 270 271 272 273 273 274 275 276 278 280 282 284 285 286 285 284 282 280 280 280 279 277 276 274 271 267 265 265 263 262 264 267 267 264 264 262 256 246 242 243 243 243 245 245 244 244 244 245 247 250 250 252 258 265 267 267 266 264 263 260 257 258 263 268 271
274 272 271 268 266 263 262 259 256 255 257 259 261 262 262 263 264 265 266 267 268 268 269 270 270 272 274 276 277 279 281 284 284 284 283 282 282 281 279 278 277 276 275 275 274 272 270 266 263 261 262 265 268 268 266 265 262 252 242 239 242 244 242 239 240 241 237 233 237 244 249 250 252 257 261 261 262 263 264 261 257 255 259 265 270 273
273 273 273 273 271 268 267 264 260 257 255 253 255 258 260 261 262 262 264 266 267 267 268 269 271 273 275 277 279 282 284 284 282 280 279 280 282 282 280 276 274 272 273 274 273 270 268 265 262 261 263 265 266 265 264 262 255 245 238 235 236 237 234 230 232 233 231 230 235 240 245 249 253 255 255 254 258 265 268 263 256 256 260 266 271 277
274 272 272 272 270 268 268 265 261 259 257 254 253 254 256 258 259 261 262 264 265 267 269 271 273 275 276 279 281 282 281 280 278 274 274 279 284 286 283 276 269 268 273 275 271 266 265 265 263 263 264 265 263 259 255 250 238 228 226 222 218 220 224 227 229 229 227 229 232 237 241 247 249 249 250 254 261 267 268 263 258 259 263 269 276 280
275 273 272 270 267 266 267 265 261 259 259 258 257 256 256 256 258 260 262 264 265 267 269 271 273 275 277 279 278 275 275 275 272 270 275 284 288 288 282 273 267 268 273 270 263 262 265 264 262 264 267 265 259 252 246 240 229 221 216 209 203 206 215 221 224 224 224 227 232 237 241 244 246 248 253 258 261 261 260 259 261 266 271 276 279 282
276 275 274 271 268 267 267 265 262 260 260 259 259 260 260 260 260 261 263 265 266 268 269 271 273 274 276 274 270 270 273 270 267 272 282 289 289 284 274 267 266 267 266 261 257 260 261 258 263 269 264 256 253 250 242 235 230 223 213 202 197 201 209 214 217 219 221 225 230 233 237 241 245 249 252 253 253 254 258 263 270 275 278 279 281 284
274 275 274 273 273 272 269 265 263 263 263 262 262 263 264 264 264 264 265 266 267 268 270 271 270 271 271 269 266 271 274 265 263 278 289 289 284 275 267 266 264 260 256 251 249 251 248 249 262 262 247 237 236 207 178 173 182 193 198 198 199 202 206 209 211 213 216 222 228 232 236 240 242 245 246 249 254 261 268 273 277 279 280 281 283 287
274 274 272 272 272 271 269 267 266 268 269 269 267 267 267 267 267 267 266 267 269 270 271 271 269 267 266 265 268 274 272 261 264 281 287 282 274 268 266 265 256 248 245 241 243 253 250 244 245 238 224 210 190 170 162 161 166 174 180 186 192 196 201 206 210 213 215 221 225 227 231 235 238 244 251 258 266 272 275 277 278 279 280 283 286 290